| time (UTC) | temp F | wind direction | speed knots | gust knots | rain 1hr in | rain 24hr in | rain mn in | humidity % | barometer mb |
| 20260503181113 | 73 | 167 | 0.9 | 1.7 | 0.00 | 0.00 | 0.00 | 61 | 1011.6 |
| 20260503180610 | 73 | 76 | 1.7 | 2.6 | 0.00 | 0.00 | 0.00 | 60 | 1011.5 |
| 20260503180108 | 72 | 172 | 0.0 | 3.5 | 0.00 | 0.00 | 0.00 | 61 | 1011.8 |
| 20260503175604 | 71 | 267 | 2.6 | 2.6 | 0.00 | 0.00 | 0.00 | 60 | 1011.7 |
| 20260503175102 | 70 | 84 | 0.9 | 2.6 | 0.00 | 0.00 | 0.00 | 63 | 1011.5 |
| 20260503174558 | 72 | 297 | 4.3 | 5.2 | 0.00 | 0.00 | 0.00 | 63 | 1011.7 |
| 20260503174055 | 70 | 173 | 0.0 | 1.7 | 0.00 | 0.00 | 0.00 | 65 | 1012.0 |
| 20260503173550 | 69 | 262 | 2.6 | 2.6 | 0.00 | 0.00 | 0.00 | 69 | 1011.9 |
| 20260503173047 | 69 | 283 | 1.7 | 2.6 | 0.00 | 0.00 | 0.00 | 68 | 1012.0 |
| 20260503172544 | 69 | 287 | 1.7 | 3.5 | 0.00 | 0.00 | 0.00 | 68 | 1011.7 |
| 20260503172041 | 68 | 256 | 0.9 | 1.7 | 0.00 | 0.00 | 0.00 | 69 | 1011.9 |
| 20260503171538 | 68 | 238 | 1.7 | 2.6 | 0.00 | 0.00 | 0.00 | 70 | 1012.1 |
| 20260503171035 | 68 | 35 | 0.9 | 1.7 | 0.00 | 0.00 | 0.00 | 72 | 1011.8 |
| 20260503170531 | 67 | 315 | 2.6 | 3.5 | 0.00 | 0.00 | 0.00 | 72 | 1011.8 |
| 20260503150924 | 59 | 166 | 0.0 | 0.0 | 0.00 | 0.00 | 0.00 | 90 | 1012.1 |
| 20260503150420 | 58 | 173 | 0.0 | 0.0 | 0.00 | 0.00 | 0.00 | 90 | 1012.2 |
| 20260503131314 | 52 | 220 | 0.0 | 0.0 | 0.00 | 0.00 | 0.00 | 97 | 1011.9 |
| 20260503130811 | 52 | 219 | 0.0 | 0.0 | 0.00 | 0.00 | 0.00 | 97 | 1011.9 |
| 20260503130309 | 52 | 219 | 0.0 | 0.0 | 0.00 | 0.00 | 0.00 | 97 | 1011.8 |
| 20260503110702 | 52 | 172 | 0.0 | 0.0 | 0.00 | 0.00 | 0.00 | 97 | 1012.1 |
| 20260503110159 | 52 | 174 | 0.0 | 0.0 | 0.00 | 0.00 | 0.00 | 97 | 1012.1 |
| 20260503100126 | 54 | 219 | 0.9 | 0.9 | 0.00 | 0.00 | 0.00 | 97 | 1012.2 |
| 20260503081515 | 56 | 128 | 0.0 | 0.0 | 0.00 | 0.00 | 0.00 | 93 | 1012.6 |
| 20260503081013 | 56 | 134 | 0.0 | 0.0 | 0.00 | 0.00 | 0.00 | 93 | 1012.7 |
| 20260503080509 | 56 | 100 | 0.0 | 0.0 | 0.00 | 0.00 | 0.00 | 92 | 1012.5 |
| 20260503072443 | 57 | 245 | 0.0 | 0.0 | 0.00 | 0.00 | 0.00 | 93 | 1012.8 |
| 20260503071939 | 57 | 246 | 0.0 | 0.0 | 0.00 | 0.00 | 0.00 | 92 | 1013.0 |
| 20260503071436 | 57 | 309 | 1.7 | 1.7 | 0.00 | 0.00 | 0.00 | 92 | 1012.8 |
| 20260503070932 | 57 | 242 | 0.0 | 0.0 | 0.00 | 0.00 | 0.00 | 93 | 1012.9 |
| 20260503070429 | 57 | 244 | 0.0 | 0.0 | 0.00 | 0.00 | 0.00 | 92 | 1012.7 |
| 20260503054843 | 59 | 174 | 0.0 | 0.0 | 0.00 | 0.02 | 0.02 | 90 | 1012.7 |
| 20260503054339 | 59 | 174 | 0.0 | 0.0 | 0.00 | 0.02 | 0.02 | 89 | 1012.7 |
| 20260503053837 | 59 | 174 | 0.0 | 0.9 | 0.00 | 0.02 | 0.02 | 89 | 1012.9 |
| 20260503053335 | 59 | 174 | 0.9 | 0.9 | 0.00 | 0.02 | 0.02 | 88 | 1013.0 |
| 20260503052831 | 59 | 157 | 0.0 | 0.0 | 0.00 | 0.02 | 0.02 | 88 | 1012.9 |
| 20260503052328 | 59 | 140 | 0.0 | 0.0 | 0.00 | 0.02 | 0.02 | 87 | 1013.3 |
| 20260503051824 | 59 | 153 | 0.0 | 0.0 | 0.00 | 0.02 | 0.02 | 86 | 1013.0 |
| 20260503051321 | 60 | 164 | 0.0 | 0.0 | 0.00 | 0.02 | 0.02 | 86 | 1013.2 |
| 20260503050818 | 60 | 164 | 0.0 | 0.9 | 0.00 | 0.02 | 0.02 | 85 | 1012.9 |
| 20260503050314 | 60 | 164 | 0.0 | 0.9 | 0.00 | 0.02 | 0.02 | 85 | 1013.0 |
| 20260503045812 | 60 | 140 | 0.0 | 0.0 | 0.00 | 0.02 | 0.02 | 84 | 1013.1 |
| 20260503045309 | 61 | 123 | 0.0 | 0.0 | 0.00 | 0.02 | 0.02 | 83 | 1013.1 |
| 20260503044805 | 61 | 51 | 0.9 | 1.7 | 0.00 | 0.02 | 0.02 | 83 | 1012.8 |
| 20260503044302 | 61 | 46 | 0.0 | 0.0 | 0.00 | 0.02 | 0.02 | 83 | 1013.1 |
| 20260503043800 | 61 | 273 | 0.9 | 0.9 | 0.00 | 0.02 | 0.02 | 82 | 1012.8 |
| 20260503043257 | 61 | 267 | 0.0 | 0.0 | 0.00 | 0.02 | 0.02 | 82 | 1013.0 |
| 20260503042752 | 62 | 268 | 0.0 | 1.7 | 0.00 | 0.02 | 0.02 | 81 | 1012.8 |
| 20260503042249 | 62 | 75 | 0.0 | 0.0 | 0.00 | 0.02 | 0.02 | 81 | 1012.9 |
| 20260503041745 | 62 | 127 | 0.0 | 0.0 | 0.00 | 0.02 | 0.02 | 81 | 1012.9 |
| 20260503041238 | 62 | 95 | 0.0 | 1.7 | 0.00 | 0.02 | 0.02 | 80 | 1012.8 |
| 20260503040735 | 62 | 122 | 0.9 | 2.6 | 0.00 | 0.02 | 0.02 | 80 | 1012.9 |
| 20260503040233 | 63 | 141 | 1.7 | 2.6 | 0.00 | 0.02 | 0.02 | 79 | 1012.8 |
| 20260503035729 | 63 | 92 | 0.9 | 1.7 | 0.00 | 0.02 | 0.02 | 78 | 1012.8 |
| 20260503035226 | 63 | 121 | 0.9 | 0.9 | 0.00 | 0.02 | 0.02 | 78 | 1012.5 |
| 20260503034724 | 63 | 104 | 0.9 | 3.5 | 0.00 | 0.02 | 0.02 | 78 | 1012.4 |
| 20260503034220 | 63 | 168 | 0.0 | 0.0 | 0.00 | 0.02 | 0.02 | 78 | 1012.1 |
| 20260503033718 | 64 | 324 | 0.9 | 1.7 | 0.00 | 0.02 | 0.02 | 77 | 1012.2 |
| 20260503033215 | 64 | 66 | 0.0 | 1.7 | 0.00 | 0.02 | 0.02 | 77 | 1012.0 |
| 20260503032713 | 64 | 4 | 1.7 | 2.6 | 0.00 | 0.02 | 0.02 | 77 | 1012.0 |
| 20260503032212 | 64 | 306 | 1.7 | 3.5 | 0.00 | 0.02 | 0.02 | 76 | 1012.0 |
| 20260503031708 | 64 | 149 | 0.0 | 0.9 | 0.00 | 0.02 | 0.02 | 75 | 1011.8 |
| 20260503031207 | 64 | 72 | 0.9 | 1.7 | 0.00 | 0.02 | 0.02 | 75 | 1011.9 |
| 20260503030702 | 64 | 78 | 0.9 | 1.7 | 0.00 | 0.02 | 0.02 | 76 | 1012.1 |
| 20260503030159 | 64 | 69 | 1.7 | 1.7 | 0.00 | 0.02 | 0.02 | 75 | 1012.0 |
| 20260503025656 | 64 | 81 | 0.0 | 1.7 | 0.00 | 0.02 | 0.02 | 75 | 1012.1 |
| 20260503025154 | 64 | 93 | 0.0 | 0.9 | 0.00 | 0.02 | 0.02 | 75 | 1011.9 |
| 20260503024650 | 64 | 159 | 0.9 | 1.7 | 0.00 | 0.02 | 0.02 | 76 | 1011.7 |
| 20260503024148 | 64 | 311 | 3.5 | 5.2 | 0.00 | 0.02 | 0.02 | 76 | 1011.9 |
| 20260503023644 | 64 | 302 | 0.0 | 1.7 | 0.00 | 0.02 | 0.02 | 78 | 1011.8 |
| 20260503023141 | 64 | 310 | 0.9 | 1.7 | 0.00 | 0.02 | 0.02 | 76 | 1011.8 |
| 20260503022637 | 64 | 275 | 0.0 | 0.9 | 0.00 | 0.02 | 0.02 | 76 | 1012.1 |
| 20260503022132 | 64 | 297 | 0.9 | 1.7 | 0.00 | 0.02 | 0.02 | 76 | 1012.1 |
| 20260503021629 | 65 | 331 | 1.7 | 1.7 | 0.00 | 0.02 | 0.02 | 73 | 1012.1 |
| 20260503021126 | 65 | 306 | 1.7 | 1.7 | 0.00 | 0.02 | 0.02 | 74 | 1012.5 |
| 20260503020623 | 65 | 158 | 0.0 | 0.0 | 0.00 | 0.02 | 0.02 | 71 | 1012.5 |
| 20260503020120 | 65 | 92 | 0.0 | 0.9 | 0.00 | 0.02 | 0.02 | 71 | 1012.6 |
| 20260503015617 | 65 | 125 | 4.3 | 5.2 | 0.00 | 0.02 | 0.02 | 72 | 1012.7 |
| 20260503015114 | 65 | 16 | 1.7 | 1.7 | 0.00 | 0.02 | 0.02 | 72 | 1012.7 |
| 20260503014609 | 65 | 101 | 1.7 | 3.5 | 0.00 | 0.02 | 0.02 | 72 | 1013.3 |
| 20260503014107 | 65 | 109 | 8.7 | 12.2 | 0.00 | 0.02 | 0.02 | 72 | 1013.4 |
| 20260503013605 | 66 | 94 | 6.1 | 8.7 | 0.00 | 0.02 | 0.02 | 69 | 1013.5 |
| 20260503013103 | 66 | 129 | 3.5 | 7.8 | 0.00 | 0.02 | 0.02 | 68 | 1013.1 |
| 20260503012600 | 67 | 107 | 4.3 | 6.1 | 0.00 | 0.02 | 0.02 | 67 | 1013.0 |
| 20260503012056 | 67 | 84 | 1.7 | 3.5 | 0.00 | 0.02 | 0.02 | 66 | 1012.8 |
| 20260503011552 | 67 | 135 | 1.7 | 3.5 | 0.00 | 0.02 | 0.02 | 66 | 1012.8 |
| 20260503011050 | 68 | 122 | 3.5 | 3.5 | 0.00 | 0.02 | 0.02 | 65 | 1012.6 |
| 20260503010546 | 67 | 111 | 1.7 | 2.6 | 0.00 | 0.02 | 0.02 | 65 | 1012.6 |
| 20260503010044 | 68 | 93 | 2.6 | 2.6 | 0.00 | 0.02 | 0.02 | 63 | 1012.4 |
| 20260503005540 | 68 | 119 | 2.6 | 2.6 | 0.00 | 0.02 | 0.02 | 64 | 1012.6 |
| 20260503005038 | 68 | 162 | 0.0 | 0.9 | 0.00 | 0.02 | 0.02 | 62 | 1012.2 |
| 20260503004534 | 67 | 149 | 0.0 | 0.9 | 0.00 | 0.02 | 0.02 | 64 | 1012.4 |
| 20260503004032 | 67 | 82 | 0.0 | 1.7 | 0.00 | 0.02 | 0.02 | 64 | 1012.5 |
| 20260503003528 | 66 | 33 | 0.9 | 1.7 | 0.00 | 0.02 | 0.02 | 66 | 1012.6 |
| 20260503003026 | 66 | 243 | 0.9 | 1.7 | 0.00 | 0.02 | 0.02 | 65 | 1012.7 |
| 20260503002523 | 67 | 204 | 0.0 | 1.7 | 0.00 | 0.02 | 0.02 | 65 | 1012.4 |
| 20260503002019 | 67 | 258 | 1.7 | 1.7 | 0.00 | 0.02 | 0.02 | 65 | 1012.3 |
| 20260503001516 | 66 | 28 | 0.9 | 1.7 | 0.00 | 0.02 | 0.02 | 67 | 1012.3 |
| 20260503001013 | 66 | 175 | 0.9 | 0.9 | 0.00 | 0.02 | 0.02 | 67 | 1012.4 |
| 20260503000511 | 66 | 352 | 0.9 | 1.7 | 0.00 | 0.02 | 0.02 | 66 | 1012.3 |
| 20260503000008 | 66 | 326 | 2.6 | 2.6 | 0.00 | 0.02 | 0.02 | 66 | 1012.3 |
| 20260502235504 | 67 | 280 | 3.5 | 6.1 | 0.00 | 0.02 | 0.02 | 66 | 1012.1 |
| 20260502235002 | 67 | 251 | 2.6 | 3.5 | 0.00 | 0.02 | 0.02 | 66 | 1011.9 |
| 20260502234458 | 66 | 176 | 0.9 | 2.6 | 0.00 | 0.02 | 0.02 | 66 | 1012.3 |
| 20260502233956 | 66 | 297 | 3.5 | 5.2 | 0.00 | 0.02 | 0.02 | 67 | 1012.3 |
| 20260502233456 | 68 | 51 | 0.9 | 0.9 | 0.00 | 0.02 | 0.02 | 63 | 1012.5 |
| 20260502232953 | 66 | 145 | 0.0 | 2.6 | 0.00 | 0.02 | 0.02 | 67 | 1012.6 |
| 20260502232449 | 65 | 125 | 0.9 | 1.7 | 0.00 | 0.02 | 0.02 | 67 | 1012.6 |
| 20260502231946 | 66 | 75 | 1.7 | 2.6 | 0.00 | 0.02 | 0.02 | 67 | 1012.5 |
| 20260502231444 | 65 | 237 | 0.9 | 0.9 | 0.00 | 0.02 | 0.02 | 69 | 1012.9 |
| 20260502230942 | 64 | 75 | 1.7 | 2.6 | 0.00 | 0.02 | 0.02 | 69 | 1012.8 |
| 20260502230439 | 64 | 11 | 2.6 | 2.6 | 0.00 | 0.02 | 0.02 | 69 | 1012.8 |
| 20260502225937 | 64 | 159 | 0.9 | 1.7 | 0.00 | 0.02 | 0.02 | 69 | 1013.1 |
| 20260502225433 | 63 | 308 | 2.6 | 2.6 | 0.00 | 0.02 | 0.02 | 71 | 1013.1 |
| 20260502224930 | 64 | 351 | 3.5 | 3.5 | 0.00 | 0.02 | 0.02 | 70 | 1013.2 |
| 20260502224426 | 64 | 306 | 1.7 | 3.5 | 0.00 | 0.02 | 0.02 | 70 | 1013.2 |
| 20260502223923 | 64 | 237 | 1.7 | 2.6 | 0.00 | 0.02 | 0.02 | 70 | 1013.5 |
| 20260502223421 | 63 | 298 | 1.7 | 2.6 | 0.00 | 0.02 | 0.02 | 70 | 1013.5 |
| 20260502222919 | 65 | 295 | 1.7 | 3.5 | 0.00 | 0.02 | 0.02 | 69 | 1013.6 |
| 20260502222416 | 64 | 88 | 0.9 | 1.7 | 0.00 | 0.02 | 0.02 | 69 | 1013.9 |
| 20260502221916 | 63 | 56 | 0.9 | 0.9 | 0.00 | 0.02 | 0.02 | 71 | 1013.7 |
| 20260502221413 | 64 | 17 | 3.5 | 3.5 | 0.00 | 0.02 | 0.02 | 69 | 1013.8 |
| 20260502220911 | 64 | 134 | 0.9 | 0.9 | 0.00 | 0.02 | 0.02 | 70 | 1013.8 |
| 20260502220406 | 62 | 269 | 0.9 | 3.5 | 0.00 | 0.02 | 0.02 | 72 | 1013.8 |
| 20260502215903 | 63 | 274 | 2.6 | 3.5 | 0.00 | 0.02 | 0.02 | 72 | 1013.8 |
| 20260502215401 | 62 | 328 | 3.5 | 7.0 | 0.00 | 0.02 | 0.02 | 72 | 1013.9 |
| 20260502214857 | 63 | 328 | 5.2 | 7.0 | 0.00 | 0.02 | 0.02 | 72 | 1014.1 |
| 20260502214354 | 63 | 351 | 0.9 | 3.5 | 0.00 | 0.02 | 0.02 | 70 | 1014.1 |
| 20260502213851 | 63 | 264 | 1.7 | 3.5 | 0.00 | 0.02 | 0.02 | 72 | 1014.3 |
| 20260502213348 | 64 | 50 | 1.7 | 3.5 | 0.00 | 0.02 | 0.02 | 70 | 1014.4 |
| 20260502212847 | 63 | 298 | 1.7 | 5.2 | 0.00 | 0.02 | 0.02 | 70 | 1014.2 |
| 20260502212345 | 62 | 321 | 3.5 | 7.0 | 0.00 | 0.02 | 0.02 | 73 | 1014.3 |
| 20260502211842 | 64 | 57 | 4.3 | 6.1 | 0.00 | 0.02 | 0.02 | 69 | 1014.4 |
| 20260502211337 | 63 | 126 | 2.6 | 2.6 | 0.00 | 0.02 | 0.02 | 70 | 1014.2 |
| 20260502210835 | 62 | 183 | 0.9 | 6.1 | 0.00 | 0.02 | 0.02 | 71 | 1014.5 |
| 20260502210332 | 62 | 322 | 2.6 | 5.2 | 0.00 | 0.02 | 0.02 | 72 | 1014.5 |
| 20260502205829 | 63 | 91 | 4.3 | 7.0 | 0.00 | 0.02 | 0.02 | 70 | 1014.5 |
| 20260502205325 | 63 | 37 | 1.7 | 3.5 | 0.00 | 0.02 | 0.02 | 70 | 1014.6 |
| 20260502204822 | 62 | 102 | 1.7 | 5.2 | 0.00 | 0.02 | 0.02 | 70 | 1014.6 |
| 20260502204320 | 62 | 32 | 2.6 | 6.1 | 0.00 | 0.02 | 0.02 | 71 | 1014.6 |
| 20260502203817 | 61 | 276 | 4.3 | 5.2 | 0.00 | 0.02 | 0.02 | 71 | 1014.6 |
| 20260502203315 | 61 | 84 | 1.7 | 3.5 | 0.00 | 0.02 | 0.02 | 71 | 1014.9 |
| 20260502202814 | 61 | 50 | 1.7 | 5.2 | 0.00 | 0.02 | 0.02 | 73 | 1015.1 |
| 20260502202312 | 60 | 329 | 3.5 | 6.1 | 0.00 | 0.02 | 0.02 | 74 | 1015.0 |
| 20260502201810 | 60 | 308 | 4.3 | 6.1 | 0.00 | 0.02 | 0.02 | 75 | 1015.1 |
| 20260502201306 | 59 | 44 | 0.9 | 5.2 | 0.00 | 0.02 | 0.02 | 75 | 1015.0 |
| 20260502200802 | 60 | 341 | 2.6 | 6.1 | 0.00 | 0.02 | 0.02 | 74 | 1015.3 |
| 20260502200258 | 60 | 215 | 3.5 | 3.5 | 0.00 | 0.02 | 0.02 | 74 | 1015.4 |
| 20260502195757 | 60 | 254 | 2.6 | 5.2 | 0.00 | 0.02 | 0.02 | 74 | 1015.4 |
| 20260502195253 | 60 | 316 | 3.5 | 6.1 | 0.00 | 0.02 | 0.02 | 74 | 1015.8 |
| 20260502194749 | 59 | 172 | 0.0 | 0.9 | 0.00 | 0.02 | 0.02 | 73 | 1015.8 |
| 20260502194247 | 58 | 253 | 2.6 | 3.5 | 0.00 | 0.02 | 0.02 | 77 | 1015.6 |
| 20260502193742 | 58 | 299 | 3.5 | 3.5 | 0.00 | 0.02 | 0.02 | 76 | 1015.8 |
| 20260502193240 | 58 | 333 | 0.9 | 1.7 | 0.00 | 0.02 | 0.02 | 77 | 1016.0 |
| 20260502192740 | 57 | 302 | 1.7 | 2.6 | 0.00 | 0.02 | 0.02 | 78 | 1015.6 |
| 20260502192238 | 58 | 50 | 0.9 | 2.6 | 0.00 | 0.02 | 0.02 | 77 | 1015.8 |
| 20260502191734 | 58 | 226 | 0.9 | 1.7 | 0.00 | 0.02 | 0.02 | 77 | 1015.5 |
| 20260502191232 | 57 | 297 | 3.5 | 5.2 | 0.00 | 0.02 | 0.02 | 78 | 1016.1 |
| 20260502190729 | 58 | 269 | 1.7 | 2.6 | 0.00 | 0.02 | 0.02 | 80 | 1015.9 |
| 20260502190227 | 57 | 189 | 0.0 | 2.6 | 0.00 | 0.02 | 0.02 | 78 | 1016.2 |
| 20260502185726 | 57 | 299 | 4.3 | 6.1 | 0.00 | 0.02 | 0.02 | 79 | 1016.0 |
| 20260502185223 | 57 | 109 | 0.0 | 1.7 | 0.00 | 0.02 | 0.02 | 78 | 1016.4 |
| 20260502184720 | 56 | 87 | 3.5 | 3.5 | 0.00 | 0.02 | 0.02 | 79 | 1016.3 |
| 20260502184215 | 57 | 117 | 1.7 | 3.5 | 0.00 | 0.02 | 0.02 | 80 | 1016.4 |
| 20260502183712 | 56 | 290 | 0.9 | 2.6 | 0.00 | 0.02 | 0.02 | 80 | 1016.6 |
| 20260502183208 | 56 | 68 | 1.7 | 1.7 | 0.00 | 0.02 | 0.02 | 80 | 1016.5 |
| 20260502182703 | 56 | 92 | 0.0 | 2.6 | 0.00 | 0.02 | 0.02 | 81 | 1016.5 |
| 20260502182159 | 55 | 172 | 0.0 | 2.6 | 0.00 | 0.02 | 0.02 | 80 | 1016.4 |
| 20260502181657 | 54 | 18 | 1.7 | 5.2 | 0.00 | 0.02 | 0.02 | 84 | 1016.5 |